Weather observations for the past three days for
Sand Point
Imperial (Metric)
Date Time (akdt) Wind (mph) Vis. (mi.) Weather Sky Cond. Temperature (ºF) Relative Humidity Wind Chill (°F) Heat Index (°F) Pressure Precipitation (in)
Air Dwpt 6 hour altimeter (in) sea level (mb) 1 hr 3 hr 6 hr
Max. Min.
18 12:56 N 12 10.00 Mostly Cloudy FEW021 SCT026 BKN040 55 45 69% 30.13 1020.6
18 09:56 N 13 10.00 Mostly Cloudy FEW020 SCT027 BKN045 50 44.1 50 48 80% 46 30.11 1019.7
18 08:56 N 13 10.00 Mostly Cloudy FEW019 SCT027 BKN040 48.9 44.1 83% 44 30.09 1019.2
18 07:56 N 10 10.00 Mostly Cloudy FEW018 SCT025 BKN034 48.9 45 86% 45 30.08 1018.6
18 06:56 N 12 10.00 Mostly Cloudy FEW017 SCT025 BKN038 48 44.1 86% 44 30.06 1018.2
18 05:56 N 13 10.00 A Few Clouds FEW013 48 45 89% 43 30.05 1017.6
18 04:56 N 13 10.00 Partly Cloudy SCT011 48 45 89% 43 30.04 1017.4
18 02:56 N 12 10.00 Fair CLR 48 44.1 86% 44 30.02 1016.8
17 23:56 N 7 10.00 Partly Cloudy SCT070 46.9 42.1 83% 44 30 1016.0
17 21:56 N 10 10.00 Overcast SCT012 OVC031 50 45 54 50 83% 46 29.96 1014.9
17 18:56 N 5 10.00 Overcast SCT018 BKN028 OVC050 53.1 48.9 86% 29.93 1013.9
17 17:56 S 5 10.00 Overcast SCT018 BKN028 OVC050 52 48.9 89% 29.93 1013.8
17 16:56 S 5 9.00 Light Drizzle SCT014 BKN021 OVC040 52 48.9 89% 29.93 1013.7
17 15:56 S 3 9.00 Light Drizzle BKN014 BKN018 OVC025 51.1 48.9 53.1 50 92% 29.93 1013.7
17 14:56 Calm 9.00 Light Drizzle BKN014 BKN018 OVC025 52 48.9 89% 29.93 1013.7
17 13:56 Calm 10.00 Overcast FEW014 BKN018 OVC027 52 46.9 83% 29.92 1013.5
17 12:56 S 3 10.00 Overcast SCT014 BKN018 OVC028 52 46.9 83% 29.92 1013.4
17 11:56 Calm 10.00 Light Drizzle BKN014 BKN021 OVC035 52 48 86% 29.92 1013.3
17 10:56 SW 6 9.00 Light Drizzle BKN012 BKN017 OVC025 51.1 46.9 86% 29.91 1013.2
17 09:56 S 7 10.00 Overcast BKN013 BKN018 OVC026 50 46.9 50 48.9 89% 48 29.91 1013.2
17 08:56 S 5 10.00 Overcast BKN014 BKN019 OVC045 50 46.9 89% 49 29.91 1013.1
17 07:56 S 8 10.00 Overcast OVC013 50 46.9 89% 47 29.91 1013.1
17 06:56 Calm 10.00 Overcast BKN014 BKN018 OVC042 48.9 46.9 93% 29.92 1013.3
17 05:56 Calm 10.00 Overcast OVC009 48.9 46.9 93% 29.93 1013.8
17 04:56 S 7 10.00 Overcast OVC011 48.9 46 90% 46 29.94 1014.2
17 03:56 S 9 10.00 Overcast OVC015 48.9 46.9 53.1 48.9 93% 45 29.96 1014.7
17 02:56 S 9 10.00 Overcast OVC013 48.9 46.9 93% 45 29.97 1015.1
17 01:56 S 8 10.00 Overcast OVC015 50 46.9 89% 47 29.97 1015.1
17 00:56 SW 5 10.00 Overcast OVC019 51.1 46 83% 29.97 1015.2
16 23:56 Calm 10.00 Overcast OVC019 51.1 46.9 86% 29.98 1015.5
16 22:56 Calm 10.00 Overcast BKN021 OVC100 50 46.9 89% 29.98 1015.4
16 21:56 SE 5 10.00 Overcast OVC019 53.1 48 57.9 53.1 83% 29.98 1015.5
16 20:56 Calm 10.00 Mostly Cloudy BKN023 55.9 48 75% 29.98 1015.4
16 19:56 W 6 10.00 Overcast OVC023 55.9 46.9 72% 29.98 1015.4
16 18:56 S 5 10.00 Partly Cloudy SCT029 SCT110 55.9 46.9 72% 29.98 1015.5
16 17:56 Vrbl 3 10.00 Partly Cloudy SCT028 SCT110 57 46 67% 29.98 1015.6
16 16:56 W 3 10.00 Partly Cloudy SCT028 SCT110 57.9 46 65% 29.99 1015.7
16 13:56 NW 5 10.00 Partly Cloudy SCT021 SCT100 54 44.1 69% 29.99 1015.9
16 12:56 W 6 10.00 Mostly Cloudy SCT016 BKN025 BKN070 53.1 44.1 72% 30 1016.0
16 11:56 NW 5 10.00 Mostly Cloudy SCT016 BKN025 BKN070 48.9 42.1 77% 48 30 1016.0
16 10:56 W 5 10.00 Mostly Cloudy SCT012 BKN017 BKN025 48 43 83% 47 29.99 1015.9
16 09:56 NW 7 10.00 Mostly Cloudy SCT012 BKN018 BKN025 46.9 43 46.9 45 86% 44 29.99 1015.8
16 08:56 W 7 10.00 Mostly Cloudy BKN012 BKN018 BKN028 46.9 43 86% 44 29.98 1015.5
16 07:56 NW 7 10.00 Mostly Cloudy BKN014 BKN018 BKN032 46.9 43 86% 44 29.97 1015.0
16 06:56 NW 7 10.00 Mostly Cloudy BKN011 46 43 89% 43 29.96 1014.7
16 05:56 NW 7 10.00 Overcast OVC013 46 43 89% 43 29.95 1014.5
16 04:56 NW 5 10.00 Overcast OVC013 46 43 89% 44 29.95 1014.6
16 03:56 W 7 10.00 Mostly Cloudy BKN017 46 43 51.1 45 89% 43 29.95 1014.4
16 02:56 NW 6 10.00 Fair CLR 46 43 89% 44 29.95 1014.5
16 01:56 Calm 10.00 Overcast OVC016 46.9 43 86% 29.95 1014.3
16 00:56 NW 6 10.00 Overcast OVC018 48 44.1 86% 46 29.94 1014.1
15 23:56 N 5 10.00 Mostly Cloudy BKN018 48.9 44.1 83% 48 29.93 1013.8
15 22:56 N 8 10.00 Mostly Cloudy BKN020 50 45 83% 47 29.92 1013.4
15 21:56 N 8 10.00 Mostly Cloudy SCT020 BKN028 BKN033 51.1 45 55 51.1 80% 29.9 1012.6
15 20:56 NW 9 10.00 Overcast OVC022 52 45 77% 29.9 1012.6
15 19:56 NW 10 10.00 Overcast FEW022 SCT033 OVC042 52 45 77% 29.9 1012.8
15 18:56 NW 12 10.00 Mostly Cloudy BKN019 BKN035 BKN060 53.1 46 77% 29.89 1012.5
15 17:56 N 8 10.00 Mostly Cloudy BKN017 BKN028 BKN050 52 46 80% 29.89 1012.3
15 16:56 Vrbl 7 10.00 Mostly Cloudy BKN019 BKN035 BKN060 53.1 46 77% 29.88 1012.1
15 15:56 NE 8 10.00 Mostly Cloudy BKN023 BKN045 BKN060 55 46.9 57 48 74% 29.87 1011.8
15 14:56 N 6 10.00 Mostly Cloudy BKN023 BKN042 BKN065 55 46 72% 29.86 1011.5
15 13:56 Calm 10.00 Mostly Cloudy BKN019 BKN028 BKN050 53.1 46 77% 29.87 1011.7
Date Time (akdt) Wind (mph) Vis. (mi.) Weather Sky Cond. Air Dwpt Max. Min. Relative Humidity Wind Chill (°F) Heat Index (°F) altimeter (in) sea level (mb) 1 hr 3 hr 6 hr
6 hour
Temperature (ºF) Pressure Precipitation (in)